HAAB

Bole International

Airport
ICAO code
HAAB
IATA Code
ADD
Summary
ICAO Region
AFI
ICAO Territory
Location

Addis Ababa, Addis Ababa

Serving
Addis Ababa
Elevation
7656 ft
Coordinates
8° 58' 40" N , 38° 47' 58" E
KCC
Airport RE
Hot and High Operations
Metar
Observation
HAAB 260700Z 15004KT 9999 BKN023 BKN070 16/11 Q1028
Station
Addis Ababa
Date/Time
2022-09-26 07:00:00
Wind direction
150°
Wind speed
04 kts
Lowest cloud amount
broken clouds
Temperature
16°C
Dew point
11°C
Humidity
72%
QNH
1028 hPa
Weather condition
n/a

International airport serving Addis Ababa, the capital of Ethiopia.

Climatology

Sub-tropical Highland climate (Köppen climate classification Cwb) - In the tropics, a Subtropical Highland climate tends to feature spring-like weather year-round. Average temperatures here remain relatively constant throughout the year but with a significant diurnal variation.

Runways

Designator Length Width Surface Rops
07L/25R 3700 45 ASP Yes/Yes
07R/25L 3800 45 ASP Yes/Yes

SKYbrary Partners:

Safety knowledge contributed by: